Weather History for KGHG - September, 2013

Change the Weather History Date:

Tuesday, September 17, 2013

  Actual Average (KPYM) Record (KPYM)
Temperature  
Mean Temperature 50 °F -  
Max Temperature 59 °F 70 °F 89 °F (1991)
Min Temperature 42 °F 50 °F 37 °F (1948)
Degree Days  
Heating Degree Days 14    
Moisture  
Dew Point 39 °F    
Average Humidity 62    
Maximum Humidity 93    
Minimum Humidity 42    
Precipitation  
Precipitation 0.00 in - - ()
Sea Level Pressure  
Sea Level Pressure 30.36 in    
Wind  
Wind Speed 10 mph (North)    
Max Wind Speed 14 mph    
Max Gust Speed 24 mph    
Visibility 10 miles    
Events      
Averages and records for this station are not official NWS values.
T = Trace of Precipitation, MM = Missing Value Source: NWS Daily Summary

Daily Weather History Graph

Daily Weather History Graph

Search for Another Location

Airport or City:

Trip Planner

Search our weather history database for the weather conditions in past years. The results will help you decide how hot, cold, wet, or windy it might be!

Date:

Astronomy

Sep. 17, 2013 Rise Set
Actual Time 6:25 AM EDT 6:48 PM EDT
Civil Twilight 5:57 AM EDT 7:16 PM EDT
Nautical Twilight 5:24 AM EDT 7:49 PM EDT
Astronomical Twilight 4:50 AM EDT 8:23 PM EDT
Moon 5:34 PM EDT (9/17) 4:14 AM EDT (9/17)
Length of Visible Light 13h 19m
Length of Day
12h 23m
Waxing Gibbous, 96% of the Moon is Illuminated
Sep 17
Waxing Gibbous
Sep 19
Full
Sep 26
Last Quarter
Oct 4
New
Oct 11
First Quarter

Hourly Weather History & Observations

Time (EDT) Temp. Windchill Dew Point Humidity Pressure Visibility Wind Dir Wind Speed Gust Speed Precip Events Conditions
12:15 AM 53.6 °F - 42.8 °F 67% 30.25 in 10.0 mi North 12.7 mph 21.9 mph N/A   Scattered Clouds
12:35 AM 53.6 °F - 42.8 °F 67% 30.25 in 10.0 mi North 12.7 mph 21.9 mph N/A   Mostly Cloudy
12:55 AM 53.6 °F - 41.0 °F 62% 30.26 in 10.0 mi North 10.4 mph 24.2 mph N/A   Mostly Cloudy
1:15 AM 53.6 °F - 41.0 °F 62% 30.27 in 10.0 mi North 11.5 mph 20.7 mph N/A   Mostly Cloudy
1:35 AM 53.6 °F - 39.2 °F 58% 30.28 in 10.0 mi North 12.7 mph 20.7 mph N/A   Overcast
1:55 AM 53.6 °F - 39.2 °F 58% 30.28 in 10.0 mi NNW 13.8 mph 23.0 mph N/A   Overcast
2:15 AM 53.6 °F - 39.2 °F 58% 30.28 in 10.0 mi North 8.1 mph 19.6 mph N/A   Overcast
2:35 AM 53.6 °F - 39.2 °F 58% 30.29 in 10.0 mi North 12.7 mph 19.6 mph N/A   Mostly Cloudy
2:55 AM 53.6 °F - 39.2 °F 58% 30.29 in 10.0 mi North 11.5 mph 19.6 mph N/A   Overcast
3:15 AM 53.6 °F - 39.2 °F 58% 30.30 in 10.0 mi North 12.7 mph 21.9 mph N/A   Overcast
3:35 AM 53.6 °F - 39.2 °F 58% 30.30 in 10.0 mi North 12.7 mph 21.9 mph N/A   Overcast
3:55 AM 53.6 °F - 39.2 °F 58% 30.30 in 10.0 mi North 9.2 mph 18.4 mph N/A   Overcast
4:15 AM 53.6 °F - 39.2 °F 58% 30.30 in 10.0 mi North 10.4 mph 19.6 mph N/A   Mostly Cloudy
4:35 AM 53.6 °F - 39.2 °F 58% 30.30 in 10.0 mi North 10.4 mph 18.4 mph N/A   Mostly Cloudy
4:55 AM 53.6 °F - 37.4 °F 54% 30.31 in 10.0 mi North 12.7 mph - N/A   Overcast
5:15 AM 51.8 °F - 37.4 °F 58% 30.31 in 10.0 mi NNE 10.4 mph 17.3 mph N/A   Overcast
5:35 AM 51.8 °F - 39.2 °F 62% 30.32 in 10.0 mi North 10.4 mph 16.1 mph N/A   Overcast
5:55 AM 51.8 °F - 39.2 °F 62% 30.32 in 10.0 mi North 11.5 mph 19.6 mph N/A   Mostly Cloudy
6:15 AM 51.8 °F - 35.6 °F 54% 30.34 in 10.0 mi NNE 11.5 mph 19.6 mph N/A   Mostly Cloudy
6:35 AM 51.8 °F - 37.4 °F 58% 30.35 in 10.0 mi North 10.4 mph 18.4 mph N/A   Mostly Cloudy
6:55 AM 53.6 °F - 37.4 °F 54% 30.35 in 10.0 mi NNE 11.5 mph 20.7 mph N/A   Overcast
7:15 AM 53.6 °F - 35.6 °F 51% 30.36 in 10.0 mi North 13.8 mph 21.9 mph N/A   Mostly Cloudy
7:35 AM 53.6 °F - 35.6 °F 51% 30.37 in 10.0 mi NNE 10.4 mph 18.4 mph N/A   Overcast
7:55 AM 53.6 °F - 37.4 °F 54% 30.38 in 10.0 mi North 11.5 mph 18.4 mph N/A   Overcast
8:15 AM 53.6 °F - 37.4 °F 54% 30.38 in 10.0 mi North 9.2 mph 20.7 mph N/A   Overcast
8:35 AM 53.6 °F - 37.4 °F 54% 30.39 in 10.0 mi NNE 13.8 mph 21.9 mph N/A   Overcast
8:55 AM 53.6 °F - 37.4 °F 54% 30.40 in 10.0 mi North 9.2 mph 17.3 mph N/A   Mostly Cloudy
9:15 AM 53.6 °F - 37.4 °F 54% 30.41 in 10.0 mi North 12.7 mph 21.9 mph N/A   Mostly Cloudy
9:35 AM 53.6 °F - 37.4 °F 54% 30.42 in 10.0 mi North 10.4 mph 21.9 mph N/A   Mostly Cloudy
9:55 AM 55.4 °F - 39.2 °F 54% 30.42 in 10.0 mi North 11.5 mph 16.1 mph N/A   Mostly Cloudy
10:15 AM 55.4 °F - 39.2 °F 54% 30.42 in 10.0 mi NNE 12.7 mph 19.6 mph N/A   Scattered Clouds
10:35 AM 55.4 °F - 37.4 °F 51% 30.43 in 10.0 mi North 12.7 mph 19.6 mph N/A   Scattered Clouds
10:55 AM 55.4 °F - 37.4 °F 51% 30.43 in 10.0 mi North 10.4 mph 20.7 mph N/A   Scattered Clouds
11:15 AM 57.2 °F - 39.2 °F 51% 30.43 in 10.0 mi North 12.7 mph 20.7 mph N/A   Scattered Clouds
11:35 AM 55.4 °F - 37.4 °F 51% 30.43 in 10.0 mi North 9.2 mph 18.4 mph N/A   Mostly Cloudy
11:55 AM 57.2 °F - 37.4 °F 48% 30.42 in 10.0 mi NNE 6.9 mph 19.6 mph N/A   Scattered Clouds
12:15 PM 57.2 °F - 37.4 °F 48% 30.42 in 10.0 mi North 9.2 mph 18.4 mph N/A   Partly Cloudy
12:35 PM 57.2 °F - 37.4 °F 48% 30.43 in 10.0 mi NNW 6.9 mph 17.3 mph N/A   Partly Cloudy
12:55 PM 57.2 °F - 39.2 °F 51% 30.42 in 10.0 mi North 9.2 mph 18.4 mph N/A   Clear
1:15 PM 57.2 °F - 39.2 °F 51% 30.42 in 10.0 mi North 10.4 mph 17.3 mph N/A   Clear
1:35 PM 57.2 °F - 37.4 °F 48% 30.41 in 10.0 mi North 8.1 mph 16.1 mph N/A   Clear
1:55 PM 57.2 °F - 37.4 °F 48% 30.41 in 10.0 mi NNW 9.2 mph - N/A   Clear
2:15 PM 57.2 °F - 39.2 °F 51% 30.40 in 10.0 mi NNW 5.8 mph - N/A   Clear
2:35 PM 57.2 °F - 37.4 °F 48% 30.40 in 10.0 mi North 9.2 mph - N/A   Clear
2:55 PM 57.2 °F - 37.4 °F 48% 30.39 in 10.0 mi NNW 9.2 mph - N/A   Clear
3:15 PM 57.2 °F - 37.4 °F 48% 30.38 in 10.0 mi North 9.2 mph - N/A   Clear
3:35 PM 59.0 °F - 37.4 °F 45% 30.38 in 10.0 mi NNW 8.1 mph - N/A   Clear
3:55 PM 57.2 °F - 35.6 °F 44% 30.37 in 10.0 mi NNW 8.1 mph - N/A   Clear
4:15 PM 59.0 °F - 35.6 °F 42% 30.38 in 10.0 mi NNE 6.9 mph - N/A   Clear
4:35 PM 59.0 °F - 35.6 °F 42% 30.37 in 10.0 mi NNE 5.8 mph - N/A   Clear
4:55 PM 59.0 °F - 35.6 °F 42% 30.37 in 10.0 mi North 4.6 mph - N/A   Clear
5:15 PM 57.2 °F - 35.6 °F 44% 30.36 in 10.0 mi NNW 3.5 mph - N/A   Clear
5:35 PM 59.0 °F - 37.4 °F 45% 30.35 in 10.0 mi NE 4.6 mph - N/A   Clear
5:55 PM 57.2 °F - 37.4 °F 48% 30.35 in 10.0 mi Calm Calm - N/A   Clear
6:15 PM 55.4 °F - 44.6 °F 67% 30.35 in 10.0 mi Calm Calm - N/A   Clear
6:35 PM 51.8 °F - 44.6 °F 76% 30.35 in 10.0 mi Calm Calm - N/A   Clear
6:55 PM 50.0 °F - 44.6 °F 82% 30.34 in 10.0 mi Calm Calm - N/A   Clear
7:15 PM 48.2 °F - 42.8 °F 82% 30.34 in 10.0 mi Calm Calm - N/A   Clear
7:35 PM 46.4 °F - 42.8 °F 87% 30.34 in 10.0 mi Calm Calm - N/A   Clear
7:55 PM 44.6 °F - 42.8 °F 93% 30.35 in 10.0 mi Calm Calm - N/A   Clear
8:15 PM 44.6 °F - 42.8 °F 93% 30.35 in 10.0 mi Calm Calm - N/A   Clear
8:35 PM 44.6 °F - 42.8 °F 93% 30.35 in 10.0 mi Calm Calm - N/A   Clear
8:55 PM 44.6 °F 42.2 °F 42.8 °F 93% 30.35 in 10.0 mi WSW 4.6 mph - N/A   Clear
9:15 PM 44.6 °F 42.2 °F 42.8 °F 93% 30.35 in 10.0 mi WSW 4.6 mph - N/A   Clear
9:35 PM 44.6 °F 43.1 °F 42.8 °F 93% 30.35 in 10.0 mi West 3.5 mph - N/A   Clear
9:55 PM 44.6 °F 43.1 °F 42.8 °F 93% 30.35 in 10.0 mi West 3.5 mph - N/A   Clear
10:15 PM 44.6 °F 43.1 °F 42.8 °F 93% 30.35 in 10.0 mi WSW 3.5 mph - N/A   Clear
10:35 PM 44.6 °F 43.1 °F 41.0 °F 87% 30.35 in 10.0 mi WSW 3.5 mph - N/A   Clear
10:55 PM 42.8 °F 41.1 °F 41.0 °F 93% 30.35 in 10.0 mi WSW 3.5 mph - N/A   Clear
11:15 PM 44.6 °F 42.2 °F 41.0 °F 87% 30.35 in 10.0 mi WSW 4.6 mph - N/A   Clear
11:35 PM 44.6 °F 41.4 °F 41.0 °F 87% 30.35 in 10.0 mi West 5.8 mph - N/A   Clear
11:55 PM 44.6 °F 42.2 °F 41.0 °F 87% 30.35 in 10.0 mi West 4.6 mph - N/A   Clear